,,Stat6,,Stat2,,Stat8,,Stat9,,Stat10,,Wind1,,Wind1,
time,status,PA1M_AVG,status,PR1M_SUM,status,RH1M_AVG,status,SR1M_AVG,status,TA1M_AVG,status,W1dAve1m,status,W1sAve1m,
2009-08-20, 00:00:00,VALID,919.418,VALID,0,VALID,100,VALID,0.0169808,VALID,20.4112,VALID,24,VALID,0,
2009-08-20, 00:01:00,VALID,919.419,VALID,0,VALID,100,VALID,0,VALID,20.3947,VALID,24,VALID,0,
2009-08-20, 00:02:00,VALID,919.443,VALID,0,VALID,100,VALID,0.0169808,VALID,20.362,VALID,24,VALID,0,
2009-08-20, 00:03:00,VALID,919.437,VALID,0,VALID,100,VALID,0.0509425,VALID,20.3301,VALID,24,VALID,0,
2009-08-20, 00:04:00,VALID,919.411,VALID,0,VALID,100,VALID,0.0509425,VALID,20.3333,VALID,14,VALID,0,
2009-08-20, 00:05:00,VALID,919.377,VALID,0,VALID,100,VALID,0.0339617,VALID,20.3361,VALID,2,VALID,0,
2009-08-20, 00:06:00,VALID,919.343,VALID,0,VALID,100,VALID,0.0169808,VALID,20.3363,VALID,356,VALID,0,
2009-08-20, 00:07:00,VALID,919.323,VALID,0,VALID,100,VALID,0,VALID,20.3266,VALID,356,VALID,0,
2009-08-20, 00:08:00,VALID,919.32,VALID,0,VALID,100,VALID,0.0169808,VALID,20.3136,VALID,357,VALID,0,
2009-08-20, 00:09:00,VALID,919.286,VALID,0,VALID,100,VALID,0,VALID,20.3044,VALID,357,VALID,0,
2009-08-20, 00:10:00,VALID,919.257,VALID,0,VALID,100,VALID,0.0169808,VALID,20.2652,VALID,357,VALID,0.203307,
2009-08-20, 00:11:00,VALID,919.239,VALID,0,VALID,100,VALID,0,VALID,20.223,VALID,357,VALID,0.436756,
2009-08-20, 00:12:00,VALID,919.222,VALID,0,VALID,100,VALID,0,VALID,20.1746,VALID,357,VALID,0.0012718,
2009-08-20, 00:13:00,VALID,919.199,VALID,0,VALID,100,VALID,0.0339617,VALID,20.1643,VALID,357,VALID,0,
2009-08-20, 00:14:00,VALID,919.191,VALID,0,VALID,100,VALID,0,VALID,20.1763,VALID,357,VALID,0,
2009-08-20, 00:15:00,VALID,919.171,VALID,0,VALID,100,VALID,0.0849042,VALID,20.2165,VALID,357,VALID,0,
2009-08-20, 00:16:00,VALID,919.147,VALID,0,VALID,100,VALID,0.0509425,VALID,20.2095,VALID,357,VALID,0,
2009-08-20, 00:17:00,VALID,919.152,VALID,0,VALID,100,VALID,0.0339617,VALID,20.1798,VALID,357,VALID,0,
2009-08-20, 00:18:00,VALID,919.14,VALID,0,VALID,100,VALID,0.0679233,VALID,20.1541,VALID,357,VALID,0,
2009-08-20, 00:19:00,VALID,919.129,VALID,0,VALID,100,VALID,0.0339617,VALID,20.1444,VALID,357,VALID,0,
2009-08-20, 00:20:00,VALID,919.127,VALID,0,VALID,100,VALID,0.0849042,VALID,20.1543,VALID,357,VALID,0,
2009-08-20, 00:21:00,VALID,919.131,VALID,0,VALID,100,VALID,0.0339617,VALID,20.1476,VALID,355,VALID,0,
2009-08-20, 00:22:00,VALID,919.129,VALID,0,VALID,100,VALID,0.0169808,VALID,20.1411,VALID,352,VALID,0,
2009-08-20, 00:23:00,VALID,919.117,VALID,0,VALID,100,VALID,0.0169808,VALID,20.1384,VALID,352,VALID,0,
2009-08-20, 00:24:00,VALID,919.095,VALID,0,VALID,100,VALID,0.0679233,VALID,20.0922,VALID,352,VALID,0,
2009-08-20, 00:25:00,VALID,919.061,VALID,0,VALID,100,VALID,0.0169808,VALID,20.0835,VALID,352,VALID,0,
2009-08-20, 00:26:00,VALID,919.031,VALID,0,VALID,100,VALID,0.0339617,VALID,20.0532,VALID,352,VALID,0,
2009-08-20, 00:27:00,VALID,919.011,VALID,0,VALID,100,VALID,-0.0169808,VALID,19.9896,VALID,352,VALID,0,
2009-08-20, 00:28:00,VALID,918.974,VALID,0,VALID,100,VALID,-0.0169808,VALID,19.9347,VALID,352,VALID,0,
2009-08-20, 00:29:00,VALID,918.96,VALID,0,VALID,100,VALID,-0.0509425,VALID,19.9055,VALID,352,VALID,0,
2009-08-20, 00:30:00,VALID,918.955,VALID,0,VALID,100,VALID,-0.0679233,VALID,19.896,VALID,352,VALID,0,
2009-08-20, 00:31:00,VALID,918.934,VALID,0,VALID,100,VALID,-0.0679233,VALID,19.877,VALID,352,VALID,0,
2009-08-20, 00:32:00,VALID,918.934,VALID,0,VALID,100,VALID,-0.0679233,VALID,19.8468,VALID,352,VALID,0,
2009-08-20, 00:33:00,VALID,918.939,VALID,0,VALID,100,VALID,-0.0679233,VALID,19.8506,VALID,22,VALID,0,
2009-08-20, 00:34:00,VALID,918.927,VALID,0,VALID,100,VALID,-0.0679233,VALID,19.8865,VALID,40,VALID,0,
2009-08-20, 00:35:00,VALID,918.916,VALID,0,VALID,100,VALID,-0.0509425,VALID,19.8928,VALID,40,VALID,0.13205,
2009-08-20, 00:36:00,VALID,918.897,VALID,0,VALID,100,VALID,-0.0849042,VALID,19.8541,VALID,40,VALID,0.315278,
2009-08-20, 00:37:00,VALID,918.886,VALID,0,VALID,100,VALID,-0.0509425,VALID,19.7884,VALID,40,VALID,0,
2009-08-20, 00:38:00,VALID,918.888,VALID,0,VALID,100,VALID,-0.0339617,VALID,19.7467,VALID,40,VALID,0,
2009-08-20, 00:39:00,VALID,918.874,VALID,0,VALID,100,VALID,-0.0679233,VALID,19.717,VALID,40,VALID,0,
2009-08-20, 00:40:00,VALID,918.848,VALID,0,VALID,100,VALID,-0.101885,VALID,19.737,VALID,40,VALID,0,
2009-08-20, 00:41:00,VALID,918.826,VALID,0,VALID,100,VALID,-0.0339617,VALID,19.7659,VALID,39,VALID,0,
2009-08-20, 00:42:00,VALID,918.827,VALID,0,VALID,100,VALID,-0.0509425,VALID,19.7919,VALID,39,VALID,0,
2009-08-20, 00:43:00,VALID,918.809,VALID,0,VALID,100,VALID,-0.0169808,VALID,19.8241,VALID,39,VALID,0,
2009-08-20, 00:44:00,VALID,918.791,VALID,0,VALID,100,VALID,-0.0169808,VALID,19.8571,VALID,39,VALID,0,
2009-08-20, 00:45:00,VALID,918.776,VALID,0,VALID,100,VALID,-0.0509425,VALID,19.8858,VALID,39,VALID,0,
2009-08-20, 00:46:00,VALID,918.748,VALID,0,VALID,100,VALID,-0.0679233,VALID,19.903,VALID,39,VALID,0,
2009-08-20, 00:47:00,VALID,918.754,VALID,0,VALID,100,VALID,-0.0509425,VALID,19.9155,VALID,348,VALID,0,
2009-08-20, 00:48:00,VALID,918.766,VALID,0,VALID,100,VALID,-0.0849042,VALID,19.915,VALID,341,VALID,0,
2009-08-20, 00:49:00,VALID,918.789,VALID,0,VALID,100,VALID,-0.0339617,VALID,19.9352,VALID,341,VALID,0,
2009-08-20, 00:50:00,VALID,918.799,VALID,0,VALID,100,VALID,-0.0339617,VALID,19.9574,VALID,312,VALID,0,
2009-08-20, 00:51:00,VALID,918.799,VALID,0,VALID,100,VALID,-0.0339617,VALID,19.9671,VALID,307,VALID,0,
2009-08-20, 00:52:00,VALID,918.8,VALID,0,VALID,100,VALID,-0.0509425,VALID,19.9799,VALID,307,VALID,0,
2009-08-20, 00:53:00,VALID,918.777,VALID,0,VALID,100,VALID,-0.0339617,VALID,19.9896,VALID,306,VALID,0,
2009-08-20, 00:54:00,VALID,918.752,VALID,0,VALID,100,VALID,-0.0169808,VALID,20.0161,VALID,306,VALID,0,
2009-08-20, 00:55:00,VALID,918.732,VALID,0,VALID,100,VALID,-0.0339617,VALID,20.0158,VALID,306,VALID,0,
2009-08-20, 00:56:00,VALID,918.727,VALID,0,VALID,100,VALID,-0.0509425,VALID,20.0323,VALID,306,VALID,0,
2009-08-20, 00:57:00,VALID,918.726,VALID,0,VALID,100,VALID,0.0169808,VALID,20.0343,VALID,306,VALID,0,
2009-08-20, 00:58:00,VALID,918.714,VALID,0,VALID,100,VALID,0.0509425,VALID,20.0465,VALID,306,VALID,0,
2009-08-20, 00:59:00,VALID,918.693,VALID,0,VALID,100,VALID,0.0339617,VALID,20.053,VALID,306,VALID,0,
2009-08-20, 01:00:00,VALID,918.692,VALID,0,VALID,100,VALID,0.0169808,VALID,20.063,VALID,306,VALID,0.201705,
2009-08-20, 01:01:00,VALID,918.701,VALID,0,VALID,100,VALID,0.0339617,VALID,20.0697,VALID,305,VALID,0.34811,
2009-08-20, 01:02:00,VALID,918.697,VALID,0,VALID,100,VALID,0,VALID,20.06,VALID,277,VALID,0.151634,
2009-08-20, 01:03:00,VALID,918.69,VALID,0,VALID,100,VALID,0.0509425,VALID,20.0532,VALID,263,VALID,0,
2009-08-20, 01:04:00,VALID,918.719,VALID,0,VALID,100,VALID,0.0339617,VALID,20.0435,VALID,253,VALID,0,
2009-08-20, 01:05:00,VALID,918.737,VALID,0,VALID,100,VALID,0.0339617,VALID,20.0343,VALID,244,VALID,0,
2009-08-20, 01:06:00,VALID,918.746,VALID,0,VALID,100,VALID,0,VALID,20.0378,VALID,244,VALID,0,
2009-08-20, 01:07:00,VALID,918.744,VALID,0,VALID,100,VALID,0,VALID,20.0245,VALID,231,VALID,0,
2009-08-20, 01:08:00,VALID,918.73,VALID,0,VALID,100,VALID,0,VALID,20.018,VALID,219,VALID,0,
2009-08-20, 01:09:00,VALID,918.732,VALID,0,VALID,100,VALID,-0.0169808,VALID,20.0151,VALID,219,VALID,0,
2009-08-20, 01:10:00,VALID,918.723,VALID,0,VALID,100,VALID,0.0339617,VALID,20.0051,VALID,219,VALID,0,
2009-08-20, 01:11:00,VALID,918.712,VALID,0,VALID,100,VALID,0,VALID,20.0051,VALID,219,VALID,0,
2009-08-20, 01:12:00,VALID,918.708,VALID,0,VALID,100,VALID,0,VALID,19.9988,VALID,219,VALID,0.360863,
2009-08-20, 01:13:00,VALID,918.702,VALID,0,VALID,100,VALID,0.0339617,VALID,19.9759,VALID,219,VALID,0.386009,
2009-08-20, 01:14:00,VALID,918.694,VALID,0,VALID,100,VALID,0.0339617,VALID,19.9491,VALID,219,VALID,0.140053,
2009-08-20, 01:15:00,VALID,918.677,VALID,0,VALID,100,VALID,0.0169808,VALID,19.9332,VALID,219,VALID,0.00560462,
2009-08-20, 01:16:00,VALID,918.677,VALID,0,VALID,100,VALID,0.0169808,VALID,19.9469,VALID,219,VALID,0,
2009-08-20, 01:17:00,VALID,918.685,VALID,0,VALID,100,VALID,-0.0169808,VALID,19.9439,VALID,219,VALID,0,
2009-08-20, 01:18:00,VALID,918.677,VALID,0,VALID,100,VALID,0,VALID,19.9531,VALID,219,VALID,0,
2009-08-20, 01:19:00,VALID,918.666,VALID,0,VALID,100,VALID,0.0679233,VALID,19.9624,VALID,219,VALID,0,
2009-08-20, 01:20:00,VALID,918.638,VALID,0,VALID,100,VALID,0.0509425,VALID,19.9619,VALID,219,VALID,0,
2009-08-20, 01:21:00,VALID,918.597,VALID,0,VALID,100,VALID,0.0169808,VALID,19.9754,VALID,219,VALID,0,
2009-08-20, 01:22:00,VALID,918.584,VALID,0,VALID,100,VALID,0.0169808,VALID,19.9754,VALID,219,VALID,0,
2009-08-20, 01:23:00,VALID,918.56,VALID,0,VALID,100,VALID,0.0679233,VALID,19.9818,VALID,219,VALID,0,
2009-08-20, 01:24:00,VALID,918.544,VALID,0,VALID,100,VALID,0.0339617,VALID,19.9789,VALID,219,VALID,0,
2009-08-20, 01:25:00,VALID,918.537,VALID,0,VALID,100,VALID,0.0509425,VALID,19.9659,VALID,219,VALID,0,
2009-08-20, 01:26:00,VALID,918.529,VALID,0,VALID,100,VALID,0.0339617,VALID,19.9459,VALID,219,VALID,0,
2009-08-20, 01:27:00,VALID,918.539,VALID,0,VALID,100,VALID,0.0339617,VALID,19.9469,VALID,219,VALID,0,
2009-08-20, 01:28:00,VALID,918.552,VALID,0,VALID,100,VALID,-0.0509425,VALID,19.9414,VALID,219,VALID,0,
2009-08-20, 01:29:00,VALID,918.562,VALID,0,VALID,100,VALID,-0.0679233,VALID,19.9095,VALID,219,VALID,0,
2009-08-20, 01:30:00,VALID,918.57,VALID,0,VALID,100,VALID,-0.0169808,VALID,19.8406,VALID,219,VALID,0,
2009-08-20, 01:31:00,VALID,918.573,VALID,0,VALID,100,VALID,-0.0509425,VALID,19.7922,VALID,219,VALID,0,
2009-08-20, 01:32:00,VALID,918.576,VALID,0,VALID,100,VALID,-0.0169808,VALID,19.7365,VALID,219,VALID,0,
2009-08-20, 01:33:00,VALID,918.561,VALID,0,VALID,100,VALID,-0.0339617,VALID,19.6788,VALID,219,VALID,0,
2009-08-20, 01:34:00,VALID,918.536,VALID,0,VALID,100,VALID,-0.0339617,VALID,19.6169,VALID,219,VALID,0,
2009-08-20, 01:35:00,VALID,918.525,VALID,0,VALID,100,VALID,-0.0509425,VALID,19.6042,VALID,63,VALID,0,
2009-08-20, 01:36:00,VALID,918.522,VALID,0,VALID,100,VALID,-0.0339617,VALID,19.6069,VALID,47,VALID,0,
2009-08-20, 01:37:00,VALID,918.503,VALID,0,VALID,100,VALID,-0.0679233,VALID,19.5683,VALID,46,VALID,0,
2009-08-20, 01:38:00,VALID,918.499,VALID,0,VALID,100,VALID,-0.0679233,VALID,19.5328,VALID,46,VALID,0,
2009-08-20, 01:39:00,VALID,918.476,VALID,0,VALID,100,VALID,-0.0679233,VALID,19.5101,VALID,43,VALID,0,
2009-08-20, 01:40:00,VALID,918.456,VALID,0,VALID,100,VALID,-0.0509425,VALID,19.5004,VALID,29,VALID,0,
2009-08-20, 01:41:00,VALID,918.446,VALID,0,VALID,100,VALID,-0.0509425,VALID,19.5006,VALID,13,VALID,0,
2009-08-20, 01:42:00,VALID,918.401,VALID,0,VALID,100,VALID,-0.0679233,VALID,19.5136,VALID,350,VALID,0,
2009-08-20, 01:43:00,VALID,918.381,VALID,0,VALID,100,VALID,-0.0679233,VALID,19.5326,VALID,350,VALID,0,
2009-08-20, 01:44:00,VALID,918.34,VALID,0,VALID,100,VALID,-0.0679233,VALID,19.5386,VALID,350,VALID,0,
2009-08-20, 01:45:00,VALID,918.331,VALID,0,VALID,100,VALID,-0.0679233,VALID,19.5515,VALID,350,VALID,0,
2009-08-20, 01:46:00,VALID,918.326,VALID,0,VALID,100,VALID,-0.0509425,VALID,19.5683,VALID,350,VALID,0,
2009-08-20, 01:47:00,VALID,918.314,VALID,0,VALID,100,VALID,-0.0679233,VALID,19.5618,VALID,350,VALID,0,
2009-08-20, 01:48:00,VALID,918.33,VALID,0,VALID,100,VALID,0,VALID,19.5323,VALID,350,VALID,0,
2009-08-20, 01:49:00,VALID,918.336,VALID,0,VALID,100,VALID,-0.0679233,VALID,19.5223,VALID,350,VALID,0,
2009-08-20, 01:50:00,VALID,918.334,VALID,0,VALID,100,VALID,-0.0509425,VALID,19.4999,VALID,350,VALID,0,
2009-08-20, 01:51:00,VALID,918.338,VALID,0,VALID,100,VALID,-0.0169808,VALID,19.4866,VALID,350,VALID,0,
2009-08-20, 01:52:00,VALID,918.343,VALID,0,VALID,100,VALID,-0.0339617,VALID,19.4737,VALID,350,VALID,0,
2009-08-20, 01:53:00,VALID,918.33,VALID,0,VALID,100,VALID,-0.0679233,VALID,19.448,VALID,350,VALID,0,
2009-08-20, 01:54:00,VALID,918.299,VALID,0,VALID,100,VALID,-0.0339617,VALID,19.4579,VALID,350,VALID,0,
2009-08-20, 01:55:00,VALID,918.277,VALID,0,VALID,100,VALID,-0.0339617,VALID,19.4445,VALID,350,VALID,0,
2009-08-20, 01:56:00,VALID,918.26,VALID,0,VALID,100,VALID,0,VALID,19.4639,VALID,350,VALID,0,
2009-08-20, 01:57:00,VALID,918.247,VALID,0,VALID,100,VALID,0.0169808,VALID,19.46,VALID,350,VALID,0,
2009-08-20, 01:58:00,VALID,918.232,VALID,0,VALID,100,VALID,0.0679233,VALID,19.4203,VALID,350,VALID,0,
2009-08-20, 01:59:00,VALID,918.215,VALID,0,VALID,100,VALID,0.0509425,VALID,19.3781,VALID,354,VALID,0,
2009-08-20, 02:00:00,VALID,918.217,VALID,0,VALID,100,VALID,0.101885,VALID,19.3846,VALID,23,VALID,0,
2009-08-20, 02:01:00,VALID,918.177,VALID,0,VALID,100,VALID,0.0679233,VALID,19.3916,VALID,16,VALID,0,
2009-08-20, 02:02:00,VALID,918.138,VALID,0,VALID,100,VALID,0.0849042,VALID,19.3784,VALID,15,VALID,0,
2009-08-20, 02:03:00,VALID,918.087,VALID,0,VALID,100,VALID,0.0509425,VALID,19.3751,VALID,18,VALID,0.933222,
2009-08-20, 02:04:00,VALID,918.033,VALID,0,VALID,100,VALID,0.101885,VALID,19.3781,VALID,41,VALID,1.14844,
2009-08-20, 02:05:00,VALID,918.014,VALID,0,VALID,100,VALID,0.0849042,VALID,19.3554,VALID,29,VALID,1.30394,
2009-08-20, 02:06:00,VALID,917.973,VALID,0,VALID,100,VALID,0.0679233,VALID,19.3364,VALID,21,VALID,1.50272,
2009-08-20, 02:07:00,VALID,917.958,VALID,0,VALID,100,VALID,0.0509425,VALID,19.3132,VALID,30,VALID,0.879794,
2009-08-20, 02:08:00,VALID,917.956,VALID,0,VALID,100,VALID,0.0849042,VALID,19.3294,VALID,7,VALID,0.76508,
2009-08-20, 02:09:00,VALID,917.975,VALID,0,VALID,100,VALID,0.0679233,VALID,19.3586,VALID,46,VALID,0.892149,
2009-08-20, 02:10:00,VALID,917.991,VALID,0,VALID,100,VALID,0.101885,VALID,19.3492,VALID,38,VALID,1.18769,
2009-08-20, 02:11:00,VALID,917.99,VALID,0,VALID,100,VALID,0.0679233,VALID,19.3357,VALID,30,VALID,0.703125,
2009-08-20, 02:12:00,VALID,917.996,VALID,0,VALID,100,VALID,0.0509425,VALID,19.3566,VALID,21,VALID,0.667515,
2009-08-20, 02:13:00,VALID,917.981,VALID,0,VALID,100,VALID,-0.0339617,VALID,19.3344,VALID,29,VALID,0.65,
2009-08-20, 02:14:00,VALID,917.988,VALID,0,VALID,100,VALID,-0.0509425,VALID,19.3247,VALID,29,VALID,0.185369,
2009-08-20, 02:15:00,VALID,917.967,VALID,0,VALID,100,VALID,-0.0339617,VALID,19.3504,VALID,29,VALID,0,
2009-08-20, 02:16:00,VALID,917.975,VALID,0,VALID,100,VALID,-0.0849042,VALID,19.3766,VALID,29,VALID,0,
2009-08-20, 02:17:00,VALID,917.966,VALID,0,VALID,100,VALID,-0.0339617,VALID,19.3733,VALID,29,VALID,0,
2009-08-20, 02:18:00,VALID,917.957,VALID,0,VALID,100,VALID,-0.0509425,VALID,19.3796,VALID,29,VALID,0.0788194,
2009-08-20, 02:19:00,VALID,917.944,VALID,0,VALID,100,VALID,-0.0339617,VALID,19.3893,VALID,29,VALID,0.44043,
2009-08-20, 02:20:00,VALID,917.934,VALID,0,VALID,100,VALID,-0.0339617,VALID,19.3831,VALID,29,VALID,0.528343,
2009-08-20, 02:21:00,VALID,917.917,VALID,0,VALID,100,VALID,0,VALID,19.4023,VALID,35,VALID,0.945494,
2009-08-20, 02:22:00,VALID,917.907,VALID,0,VALID,100,VALID,-0.0679233,VALID,19.4058,VALID,22,VALID,1.08775,
2009-08-20, 02:23:00,VALID,917.914,VALID,0,VALID,100,VALID,-0.0339617,VALID,19.4155,VALID,32,VALID,0.976944,
2009-08-20, 02:24:00,VALID,917.922,VALID,0,VALID,100,VALID,-0.0169808,VALID,19.4028,VALID,31,VALID,0.995458,
2009-08-20, 02:25:00,VALID,917.932,VALID,0,VALID,100,VALID,-0.0169808,VALID,19.3861,VALID,24,VALID,1.08918,
2009-08-20, 02:26:00,VALID,917.928,VALID,0,VALID,100,VALID,-0.0509425,VALID,19.3733,VALID,21,VALID,0.711128,
2009-08-20, 02:27:00,VALID,917.913,VALID,0,VALID,100,VALID,-0.0679233,VALID,19.3576,VALID,21,VALID,0.285156,
2009-08-20, 02:28:00,VALID,917.883,VALID,0,VALID,100,VALID,-0.101885,VALID,19.3678,VALID,21,VALID,0.282848,
2009-08-20, 02:29:00,VALID,917.875,VALID,0,VALID,100,VALID,-0.152827,VALID,19.3908,VALID,14,VALID,0.417014,
2009-08-20, 02:30:00,VALID,917.851,VALID,0,VALID,100,VALID,-0.135847,VALID,19.394,VALID,12,VALID,0.0809028,
2009-08-20, 02:31:00,VALID,917.832,VALID,0,VALID,100,VALID,-0.101885,VALID,19.3908,VALID,11,VALID,0.0652902,
2009-08-20, 02:32:00,VALID,917.819,VALID,0,VALID,100,VALID,-0.101885,VALID,19.3938,VALID,9,VALID,0.397879,
2009-08-20, 02:33:00,VALID,917.802,VALID,0,VALID,100,VALID,-0.0849042,VALID,19.3808,VALID,9,VALID,0.298018,
2009-08-20, 02:34:00,VALID,917.791,VALID,0,VALID,100,VALID,-0.101885,VALID,19.3908,VALID,9,VALID,0.299782,
2009-08-20, 02:35:00,VALID,917.778,VALID,0,VALID,100,VALID,-0.118866,VALID,19.3875,VALID,9,VALID,0.0893674,
2009-08-20, 02:36:00,VALID,917.772,VALID,0,VALID,100,VALID,-0.152827,VALID,19.41,VALID,9,VALID,0,
2009-08-20, 02:37:00,VALID,917.769,VALID,0,VALID,100,VALID,-0.118866,VALID,19.4397,VALID,9,VALID,0,
2009-08-20, 02:38:00,VALID,917.764,VALID,0,VALID,100,VALID,-0.135847,VALID,19.4464,VALID,9,VALID,0,
2009-08-20, 02:39:00,VALID,917.76,VALID,0,VALID,100,VALID,-0.101885,VALID,19.42,VALID,9,VALID,0,
2009-08-20, 02:40:00,VALID,917.752,VALID,0,VALID,100,VALID,-0.118866,VALID,19.4262,VALID,9,VALID,0.122713,
2009-08-20, 02:41:00,VALID,917.748,VALID,0,VALID,100,VALID,-0.101885,VALID,19.433,VALID,10,VALID,0.461632,
2009-08-20, 02:42:00,VALID,917.739,VALID,0,VALID,100,VALID,-0.0339617,VALID,19.419,VALID,7,VALID,0.60556,
2009-08-20, 02:43:00,VALID,917.737,VALID,0,VALID,100,VALID,0,VALID,19.3828,VALID,5,VALID,0.666548,
2009-08-20, 02:44:00,VALID,917.74,VALID,0,VALID,100,VALID,0,VALID,19.3434,VALID,10,VALID,0.88157,
2009-08-20, 02:45:00,VALID,917.75,VALID,0,VALID,100,VALID,-0.0339617,VALID,19.3312,VALID,13,VALID,0.397321,
2009-08-20, 02:46:00,VALID,917.756,VALID,0,VALID,100,VALID,-0.0339617,VALID,19.3406,VALID,13,VALID,0.215116,
2009-08-20, 02:47:00,VALID,917.747,VALID,0,VALID,100,VALID,-0.0169808,VALID,19.3471,VALID,13,VALID,0.0236328,
2009-08-20, 02:48:00,VALID,917.742,VALID,0,VALID,100,VALID,-0.0169808,VALID,19.3571,VALID,12,VALID,0,
2009-08-20, 02:49:00,VALID,917.74,VALID,0,VALID,100,VALID,-0.0339617,VALID,19.3698,VALID,12,VALID,0,
2009-08-20, 02:50:00,VALID,917.752,VALID,0,VALID,100,VALID,0.0169808,VALID,19.3861,VALID,12,VALID,0,
2009-08-20, 02:51:00,VALID,917.756,VALID,0,VALID,100,VALID,0,VALID,19.412,VALID,12,VALID,0,
2009-08-20, 02:52:00,VALID,917.753,VALID,0,VALID,100,VALID,-0.0849042,VALID,19.4153,VALID,12,VALID,0,
2009-08-20, 02:53:00,VALID,917.728,VALID,0,VALID,100,VALID,0,VALID,19.396,VALID,12,VALID,0,
2009-08-20, 02:54:00,VALID,917.709,VALID,0,VALID,100,VALID,-0.0169808,VALID,19.3828,VALID,12,VALID,0,
2009-08-20, 02:55:00,VALID,917.692,VALID,0,VALID,100,VALID,0,VALID,19.3763,VALID,12,VALID,0,
2009-08-20, 02:56:00,VALID,917.697,VALID,0,VALID,100,VALID,-0.0169808,VALID,19.3731,VALID,12,VALID,0,
2009-08-20, 02:57:00,VALID,917.706,VALID,0,VALID,100,VALID,0.0169808,VALID,19.3731,VALID,12,VALID,0,
2009-08-20, 02:58:00,VALID,917.704,VALID,0,VALID,100,VALID,0,VALID,19.3661,VALID,12,VALID,0,
2009-08-20, 02:59:00,VALID,917.708,VALID,0,VALID,100,VALID,-0.0169808,VALID,19.399,VALID,12,VALID,0,
2009-08-20, 03:00:00,VALID,917.722,VALID,0,VALID,100,VALID,-0.0169808,VALID,19.4245,VALID,12,VALID,0,
2009-08-20, 03:01:00,VALID,917.712,VALID,0,VALID,100,VALID,0,VALID,19.451,VALID,12,VALID,0,
2009-08-20, 03:02:00,VALID,917.707,VALID,0,VALID,100,VALID,0.0169808,VALID,19.4445,VALID,12,VALID,0,
2009-08-20, 03:03:00,VALID,917.687,VALID,0,VALID,100,VALID,0,VALID,19.4415,VALID,12,VALID,0,
2009-08-20, 03:04:00,VALID,917.673,VALID,0,VALID,100,VALID,0,VALID,19.4248,VALID,12,VALID,0,
2009-08-20, 03:05:00,VALID,917.648,VALID,0,VALID,100,VALID,0.0169808,VALID,19.4282,VALID,12,VALID,0,
2009-08-20, 03:06:00,VALID,917.635,VALID,0,VALID,100,VALID,0,VALID,19.4415,VALID,12,VALID,0,
2009-08-20, 03:07:00,VALID,917.639,VALID,0,VALID,100,VALID,0.0169808,VALID,19.4118,VALID,46,VALID,0,
2009-08-20, 03:08:00,VALID,917.642,VALID,0,VALID,100,VALID,-0.0169808,VALID,19.3796,VALID,63,VALID,0,
2009-08-20, 03:09:00,VALID,917.645,VALID,0,VALID,100,VALID,0,VALID,19.3698,VALID,112,VALID,0.370808,
2009-08-20, 03:10:00,VALID,917.655,VALID,0,VALID,100,VALID,-0.0339617,VALID,19.3569,VALID,161,VALID,0.776101,
2009-08-20, 03:11:00,VALID,917.652,VALID,0,VALID,100,VALID,-0.0339617,VALID,19.3372,VALID,162,VALID,0.466602,
2009-08-20, 03:12:00,VALID,917.643,VALID,0,VALID,100,VALID,-0.0509425,VALID,19.3374,VALID,162,VALID,0.0606971,
2009-08-20, 03:13:00,VALID,917.641,VALID,0,VALID,100,VALID,0,VALID,19.3372,VALID,162,VALID,0,
2009-08-20, 03:14:00,VALID,917.638,VALID,0,VALID,100,VALID,-0.0339617,VALID,19.3406,VALID,162,VALID,0,
2009-08-20, 03:15:00,VALID,917.623,VALID,0,VALID,100,VALID,-0.0339617,VALID,19.3536,VALID,162,VALID,0,
2009-08-20, 03:16:00,VALID,917.612,VALID,0,VALID,100,VALID,0,VALID,19.3374,VALID,162,VALID,0,
2009-08-20, 03:17:00,VALID,917.602,VALID,0,VALID,100,VALID,0,VALID,19.3309,VALID,162,VALID,0,
2009-08-20, 03:18:00,VALID,917.605,VALID,0,VALID,100,VALID,0,VALID,19.3177,VALID,162,VALID,0,
2009-08-20, 03:19:00,VALID,917.605,VALID,0,VALID,100,VALID,-0.0169808,VALID,19.305,VALID,162,VALID,0,
2009-08-20, 03:20:00,VALID,917.604,VALID,0,VALID,100,VALID,-0.0169808,VALID,19.2887,VALID,162,VALID,0.182413,
2009-08-20, 03:21:00,VALID,917.591,VALID,0,VALID,100,VALID,0,VALID,19.2658,VALID,162,VALID,0.430414,
2009-08-20, 03:22:00,VALID,917.57,VALID,0,VALID,100,VALID,-0.0339617,VALID,19.2658,VALID,162,VALID,0.0334302,
2009-08-20, 03:23:00,VALID,917.543,VALID,0,VALID,100,VALID,-0.0169808,VALID,19.2723,VALID,162,VALID,0,
2009-08-20, 03:24:00,VALID,917.521,VALID,0,VALID,100,VALID,-0.0169808,VALID,19.2917,VALID,162,VALID,0,
2009-08-20, 03:25:00,VALID,917.505,VALID,0,VALID,100,VALID,-0.0169808,VALID,19.3047,VALID,162,VALID,0,
2009-08-20, 03:26:00,VALID,917.461,VALID,0,VALID,100,VALID,-0.0339617,VALID,19.3015,VALID,162,VALID,0,
2009-08-20, 03:27:00,VALID,917.439,VALID,0,VALID,100,VALID,-0.0339617,VALID,19.2825,VALID,162,VALID,0,
2009-08-20, 03:28:00,VALID,917.424,VALID,0,VALID,100,VALID,-0.0169808,VALID,19.269,VALID,162,VALID,0,
2009-08-20, 03:29:00,VALID,917.413,VALID,0,VALID,100,VALID,-0.0169808,VALID,19.2428,VALID,162,VALID,0,
2009-08-20, 03:30:00,VALID,917.401,VALID,0,VALID,100,VALID,-0.0849042,VALID,19.2371,VALID,162,VALID,0,
2009-08-20, 03:31:00,VALID,917.395,VALID,0,VALID,100,VALID,-0.0849042,VALID,19.2433,VALID,162,VALID,0,
2009-08-20, 03:32:00,VALID,917.37,VALID,0,VALID,100,VALID,-0.0509425,VALID,19.2528,VALID,162,VALID,0,
2009-08-20, 03:33:00,VALID,917.352,VALID,0,VALID,100,VALID,-0.0849042,VALID,19.2595,VALID,162,VALID,0,
2009-08-20, 03:34:00,VALID,917.344,VALID,0,VALID,100,VALID,-0.0509425,VALID,19.2593,VALID,162,VALID,0.143864,
2009-08-20, 03:35:00,VALID,917.35,VALID,0,VALID,100,VALID,-0.0679233,VALID,19.266,VALID,162,VALID,0.313616,
2009-08-20, 03:36:00,VALID,917.364,VALID,0,VALID,100,VALID,-0.0509425,VALID,19.2725,VALID,162,VALID,0.00985863,
2009-08-20, 03:37:00,VALID,917.372,VALID,0,VALID,100,VALID,-0.0339617,VALID,19.279,VALID,162,VALID,0,
2009-08-20, 03:38:00,VALID,917.385,VALID,0,VALID,100,VALID,-0.0509425,VALID,19.2725,VALID,162,VALID,0,
2009-08-20, 03:39:00,VALID,917.395,VALID,0,VALID,100,VALID,-0.0509425,VALID,19.262,VALID,162,VALID,0,
2009-08-20, 03:40:00,VALID,917.384,VALID,0,VALID,100,VALID,-0.0339617,VALID,19.2558,VALID,162,VALID,0,
2009-08-20, 03:41:00,VALID,917.385,VALID,0,VALID,100,VALID,-0.0339617,VALID,19.2204,VALID,146,VALID,0.359184,
2009-08-20, 03:42:00,VALID,917.363,VALID,0,VALID,100,VALID,-0.0339617,VALID,19.1974,VALID,144,VALID,0.0220703,
2009-08-20, 03:43:00,VALID,917.348,VALID,0,VALID,100,VALID,-0.0339617,VALID,19.1849,VALID,149,VALID,0.311632,
2009-08-20, 03:44:00,VALID,917.325,VALID,0,VALID,100,VALID,-0.0849042,VALID,19.1747,VALID,158,VALID,0.424716,
2009-08-20, 03:45:00,VALID,917.317,VALID,0,VALID,100,VALID,-0.0339617,VALID,19.2009,VALID,158,VALID,0.326527,
2009-08-20, 03:46:00,VALID,917.326,VALID,0,VALID,100,VALID,-0.0339617,VALID,19.2303,VALID,158,VALID,0.729421,
2009-08-20, 03:47:00,VALID,917.341,VALID,0,VALID,100,VALID,-0.0339617,VALID,19.2433,VALID,164,VALID,0.824319,
2009-08-20, 03:48:00,VALID,917.354,VALID,0,VALID,100,VALID,-0.0169808,VALID,19.2563,VALID,167,VALID,0.65439,